This demonstration page uses our WeatherBlox Daily Observations layout. Learn more.

Left ArrowRight Arrow

Hourly Observations for January 20, 2015

Temp ( °F °C ) Dew Point ( °F °C ) Humidity (%) Winds ( mph kmh ) Pressure ( in mb ) Visibility ( mi km ) Precip ( " mm )
12:52 am 00:52 Clear 40 4.4 27 -2.8 60 60 WNW 13 20 29.97 1015 10 16 0.00 0.00
1:52 am 01:52 Clear 36 2.2 27 -2.8 70 70 NW 10 17 29.97 1015 10 16 0.00 0.00
2:52 am 02:52 Mostly Clear 35 1.7 27 -2.8 72 72 NNW 8 13 29.98 1015 10 16 0.00 0.00
3:52 am 03:52 Mostly Clear 35 1.7 27 -2.8 72 72 WNW 8 13 30.00 1016 10 16 0.00 0.00
4:52 am 04:52 Mostly Clear 34 1.1 26 -3.3 73 73 Calm 30.01 1016 10 16 0.00 0.00
5:52 am 05:52 Mostly Clear 32 0 25 -3.9 75 75 NNW 5 7 30.02 1017 10 16 0.00 0.00
6:52 am 06:52 Partly Cloudy 35 1.7 26 -3.3 70 70 WNW 7 11 30.02 1017 10 16 0.00 0.00
7:52 am 07:52 Mostly Sunny 34 1.1 26 -3.3 73 73 NW 8 13 30.04 1017 10 16 0.00 0.00
8:52 am 08:52 Mostly Sunny 37 2.8 28 -2.2 70 70 NW 7 11 30.05 1018 10 16 0.00 0.00
9:52 am 09:52 Partly Cloudy 42 5.6 28 -2.2 58 58 WNW 14 22 30.05 1018 10 16 0.00 0.00
10:52 am 10:52 Partly Cloudy 44 6.7 29 -1.7 55 55 WNW 16 26 30.07 1018 10 16 0.00 0.00
11:52 am 11:52 Partly Cloudy 47 8.3 30 -1.1 52 52 WNW 14 22 30.06 1018 10 16 0.00 0.00
12:52 pm 12:52 Partly Cloudy 48 8.9 30 -1.1 50 50 WNW 15 24 30.04 1017 10 16 0.00 0.00
1:52 pm 13:52 Partly Cloudy 50 10 30 -1.1 46 46 WNW 21 33 30.02 1017 10 16 0.00 0.00
2:52 pm 14:52 Partly Cloudy 51 10.6 30 -1.1 44 44 WNW 15 24 30.03 1017 10 16 0.00 0.00
3:52 pm 15:52 Mostly Cloudy 48 8.9 30 -1.1 50 50 WNW 17 28 30.03 1017 10 16 0.00 0.00
4:52 pm 16:52 Mostly Cloudy 46 7.8 29 -1.7 51 51 WNW 16 26 30.04 1017 10 16 0.00 0.00
5:52 pm 17:52 Mostly Cloudy 43 6.1 28 -2.2 56 56 WNW 6 9 30.04 1017 10 16 0.00 0.00
6:52 pm 18:52 Mostly Cloudy 42 5.6 29 -1.7 60 60 W 7 11 30.04 1017 10 16 0.00 0.00
7:52 pm 19:52 Mostly Clear 43 6.1 28 -2.2 56 56 WNW 17 28 30.05 1018 10 16 0.00 0.00
8:52 pm 20:52 Mostly Clear 39 3.9 27 -2.8 62 62 NW 12 19 30.05 1018 10 16 0.00 0.00
9:52 pm 21:52 Mostly Cloudy 38 3.3 29 -1.7 70 70 NW 10 17 30.07 1018 10 16 0.00 0.00
10:52 pm 22:52 Mostly Cloudy 33 0.6 28 -2.2 82 82 NNW 7 11 30.08 1019 10 16 0.00 0.00
11:52 pm 23:52 Mostly Cloudy 36 2.2 30 -1.1 79 79 WNW 7 11 30.09 1019 10 16 0.00 0.00

Powered by AerisWeather